Weather History for KODX - February, 2014

Change the Weather History Date:

Saturday, February 22, 2014

  Actual Average Record
Temperature  
Mean Temperature 30 °F 29 °F  
Max Temperature 39 °F 42 °F 62 °F (2002)
Min Temperature 21 °F 17 °F -3 °F (2015)
Degree Days  
Heating Degree Days 35 36  
Month to date heating degree days 956 834  
Since 1 July heating degree days 4810  
Cooling Degree Days 0 0  
Month to date cooling degree days 0 0  
Year to date cooling degree days 0 0  
Moisture  
Dew Point 18 °F    
Average Humidity 64    
Maximum Humidity 88    
Minimum Humidity 40    
Precipitation  
Precipitation T in 0.02 in 0.59 in (1994)
Month to date precipitation 0.16 0.37  
Year to date precipitation 0.22 0.74  
Sea Level Pressure  
Sea Level Pressure 30.06 in    
Wind  
Wind Speed 9 mph (North)    
Max Wind Speed 16 mph    
Max Gust Speed 21 mph    
Visibility 10 miles    
Events      
T = Trace of Precipitation, MM = Missing Value Source: NWS Daily Summary

Daily Weather History Graph

Daily Weather History Graph

Search for Another Location

Airport or City:

Trip Planner

Search our weather history database for the weather conditions in past years. The results will help you decide how hot, cold, wet, or windy it might be!

Date:

Astronomy

Feb. 22, 2014 Rise Set
Actual Time 7:21 AM CST 6:18 PM CST
Civil Twilight 6:53 AM CST 6:46 PM CST
Nautical Twilight 6:20 AM CST 7:18 PM CST
Astronomical Twilight 5:48 AM CST 7:50 PM CST
Moon 1:19 AM CST (2/22) 11:28 AM CST (2/22)
Length of Visible Light 11h 53m
Length of Day
10h 56m
Waning Gibbous, 50% of the Moon is Illuminated
Feb 22
Waning Gibbous
Mar 1
New
Mar 8
First Quarter
Mar 16
Full
Mar 23
Last Quarter

Hourly Weather History & Observations

Time (CST) Temp. Windchill Dew Point Humidity Pressure Visibility Wind Dir Wind Speed Gust Speed Precip Events Conditions
12:53 AM 27.0 °F - 19.9 °F 75% 29.91 in 10.0 mi Calm Calm - N/A   Overcast
1:53 AM 28.0 °F 21.7 °F 19.9 °F 72% 29.91 in 10.0 mi SW 5.8 mph - N/A   Overcast
2:53 AM 28.9 °F 25.2 °F 19.9 °F 69% 29.90 in 10.0 mi NNW 3.5 mph - N/A   Overcast
3:53 AM 30.9 °F 24.3 °F 21.0 °F 67% 29.91 in 10.0 mi WNW 6.9 mph - N/A   Overcast
4:53 AM 25.0 °F 18.1 °F 21.0 °F 85% 29.94 in 10.0 mi NW 5.8 mph - N/A   Partly Cloudy
5:53 AM 27.0 °F - 21.9 °F 81% 29.98 in 10.0 mi Calm Calm - N/A   Overcast
6:53 AM 25.0 °F 17.1 °F 21.0 °F 85% 30.02 in 10.0 mi WNW 6.9 mph - N/A   Mostly Cloudy
7:53 AM 25.0 °F 16.3 °F 21.9 °F 88% 30.04 in 10.0 mi WNW 8.1 mph - N/A   Mostly Cloudy
8:53 AM 30.0 °F 21.7 °F 25.0 °F 82% 30.05 in 10.0 mi North 9.2 mph - N/A   Partly Cloudy
9:53 AM 32.0 °F 22.5 °F 21.9 °F 66% 30.06 in 10.0 mi North 12.7 mph - N/A   Clear
10:53 AM 32.0 °F 22.5 °F 21.0 °F 64% 30.08 in 10.0 mi North 12.7 mph - N/A   Clear
11:53 AM 33.1 °F 23.4 °F 19.0 °F 56% 30.09 in 10.0 mi North 13.8 mph - N/A   Clear
12:53 PM 36.0 °F 28.0 °F 19.0 °F 50% 30.07 in 10.0 mi North 11.5 mph - N/A   Clear
1:53 PM 35.1 °F 26.4 °F 16.0 °F 46% 30.05 in 10.0 mi NNE 12.7 mph - N/A   Partly Cloudy
2:53 PM 37.9 °F 30.5 °F 16.0 °F 41% 30.04 in 10.0 mi North 11.5 mph 16.1 mph N/A   Clear
3:53 PM 36.0 °F 28.0 °F 16.0 °F 44% 30.05 in 10.0 mi NNE 11.5 mph - N/A   Overcast
4:53 PM 34.0 °F 25.0 °F 15.1 °F 46% 30.08 in 10.0 mi North 12.7 mph - N/A   Overcast
5:53 PM 32.0 °F 24.2 °F 12.9 °F 45% 30.09 in 10.0 mi North 9.2 mph - N/A   Overcast
6:53 PM 30.0 °F 22.4 °F 14.0 °F 51% 30.13 in 10.0 mi North 8.1 mph - N/A   Overcast
7:53 PM 28.9 °F 19.8 °F 12.9 °F 51% 30.16 in 10.0 mi NNE 10.4 mph - N/A   Mostly Cloudy
8:53 PM 28.0 °F 19.3 °F 12.0 °F 51% 30.17 in 10.0 mi NNE 9.2 mph - N/A   Overcast
9:53 PM 28.0 °F 19.3 °F 10.9 °F 49% 30.22 in 10.0 mi North 9.2 mph - N/A   Overcast
10:53 PM 27.0 °F 18.7 °F 12.0 °F 53% 30.24 in 10.0 mi NE 8.1 mph - N/A   Overcast
11:53 PM 25.0 °F 17.1 °F 12.0 °F 58% 30.25 in 10.0 mi NE 6.9 mph - 0.00 in   Overcast